Location: Wheeling
(40.0640°N, 80.7210°W)
Time: 13:56:54
(UTC-05:00)

CUTE 1.7 + AOD 2 - Pass Details

Date: 28 October 2021
Orbit: 592 x 610 km, 97.6° (Epoch: 01 December)

Event Time Altitude Azimuth Distance (km) Brightness Sun altitude
Rises 06:19:41 0° 0° (N) 2,881 ? -17.4°
Reaches altitude 10° 06:22:06 10° 349° (N) 1,971 ? -17.0°
Enters shadow 06:25:38 28° 294° (WNW) 1,141 ? -16.3°
